1332700519452596,  0.01929458123, -0.00770881905,  0.00025564516,  0.00000589588, -0.00002281975, -0.00040748150,  0.01765317666,  0.00037532712, -0.00000904901,  0.00000855512,  0.00015836879,  0.05233345426, -0.00068046708,  0.00126630148, -0.00005047350,  0.00007660273, -0.00000073084,  0.00000110183,  0.00012287658, -0.00000097707,  0.00004524292
1332700551457216,  0.01603725341, -0.00717806713,  0.00027061370, -0.00003896841, -0.00000582608, -0.00025916817,  0.01800119662,  0.00026541297,  0.00002148945,  0.00000674455,  0.00019675112,  0.04069447658,  0.00084297222,  0.00059215434, -0.00011268093,  0.00008421565,  0.00001389710, -0.00000602854,  0.00006023522, -0.00000246005,  0.00002900929
1332700554857703,  0.01450226423, -0.00727611435,  0.00022532305, -0.00001326811, -0.00000218880, -0.00020525922,  0.01985410994,  0.00011956379, -0.00000751024,  0.00000487465,  0.00027750332,  0.03644629971,  0.00085434139,  0.00022279447, -0.00001406230,  0.00007864989,  0.00001243816, -0.00000016878,  0.00005436415, -0.00000124099,  0.00002578369
1332700558458224,  0.01342864603, -0.00709158694,  0.00017386201, -0.00001809515, -0.00000056859, -0.00015897639,  0.02242101404,  0.00009042704, -0.00000025462,  0.00000307451,  0.00034283409,  0.03510214377,  0.00077683791,  0.00004735821, -0.00002812593,  0.00007914064,  0.00001468399, -0.00000189298,  0.00005267515, -0.00000171165,  0.00002493674
1332700562058759,  0.01260577850, -0.00649370171,  0.00014294946, -0.00001778702,  0.00000223716, -0.00011702327,  0.02533346410,  0.00013052545,  0.00000757842, -0.00000526431,  0.00039725894,  0.03549858400,  0.00070542313, -0.00012836110, -0.00003038346,  0.00007958028,  0.00001293257, -0.00000242466,  0.00005505938, -0.00000133695,  0.00002654213
1332700565659270,  0.01204687350, -0.00554637399,  0.00010456887, -0.00001525066,  0.00000249113, -0.00007882013,  0.02872167962,  0.00019408448,  0.00000445783, -0.00000709908,  0.00044936011,  0.03778299363,  0.00064379773, -0.00031017305, -0.00001542134,  0.00008011606,  0.00001018022, -0.00000193988,  0.00005534423, -0.00000126022,  0.00002675044
1332700569259784,  0.01169741188, -0.00400238646,  0.00008749315, -0.00001415915, -0.00000186299, -0.00003476559,  0.03167943723,  0.00029661223,  0.00001307717, -0.00000926248,  0.00048725330,  0.04054095417,  0.00067143026, -0.00028023631, -0.00001498171,  0.00006754551,  0.00001366466, -0.00000175442,  0.00006535187, -0.00000180993,  0.00002656799
1332700572860299,  0.01167942866, -0.00188647123,  0.00013151208, -0.00000929218, -0.00000239294,  0.00001994538,  0.03433167565,  0.00043566478,  0.00002115267, -0.00000558631,  0.00051546369,  0.04444265456,  0.00061699322, -0.00048011068, -0.00000712954,  0.00007272049,  0.00001256930, -0.00000246253,  0.00006647016, -0.00000222515,  0.00002813308
1332700576660851,  0.01213485328,  0.00070565373,  0.00019326816, -0.00000439122, -0.00000531690,  0.00007174070,  0.03671309873,  0.00059529129,  0.00002469429, -0.00001695314,  0.00054087124,  0.05016760314,  0.00067447099, -0.00059224515, -0.00001107197,  0.00008009655,  0.00000191529, -0.00000247563,  0.00007043713, -0.00000096220,  0.00002897750
1332700580261366,  0.01314822988,  0.00344073361,  0.00037817566,  0.00000668923, -0.00000723366,  0.00013239017,  0.03714003566,  0.00067298097,  0.00002350278, -0.00000738658,  0.00055693889,  0.05552355750,  0.00099747000, -0.00034871615, -0.00000285627,  0.00008025256, -0.00001147534, -0.00000085179,  0.00006923474, -0.00000047281,  0.00002804017
1332700584061907,  0.01428940411,  0.00478381009,  0.00045918558,  0.00000233664,  0.00000283640,  0.00018756581,  0.03327424558,  0.00068059511, -0.00000151190,  0.00001266419,  0.00050628849,  0.05483085016,  0.00094389457,  0.00054751127,  0.00004043101,  0.00008864464,  0.00000265770,  0.00000259677,  0.00005055347, -0.00000008604,  0.00002840303
1332700587862466,  0.01394276333,  0.00342834893,  0.00052586103,  0.00000257947,  0.00001268096,  0.00016350293,  0.02843626995,  0.00047274158, -0.00000698537,  0.00001866304,  0.00043796829,  0.04663218723,  0.00044715317,  0.00081023283,  0.00000392248,  0.00008288265,  0.00001108056,  0.00000113424,  0.00004761036,  0.00000027499,  0.00002692016
1332700591462995,  0.01335416415,  0.00198774170,  0.00051538617,  0.00000377052,  0.00000790961,  0.00015410611,  0.02450579477,  0.00034474885, -0.00000458563,  0.00000192671,  0.00039673530,  0.03926860721,  0.00039279947,  0.00070392089,  0.00002178615,  0.00007846703,  0.00000822060,  0.00000092635,  0.00004481013,  0.00000085298,  0.00002645705
1332700595063499,  0.01273798873,  0.00062576018,  0.00051050534,  0.00000180306,  0.00000927517,  0.00013080576,  0.02115293110,  0.00022143911, -0.00001148219, -0.00000625925,  0.00033873533,  0.03281962710,  0.00030820122,  0.00058255149,  0.00002411791,  0.00006773322,  0.00000894869,  0.00000127081,  0.00003860043,  0.00000105157,  0.00002162810
1332700598664044,  0.01224236885, -0.00056473601,  0.00045774765, -0.00000091958,  0.00001036169,  0.00010315693,  0.01825969525,  0.00018488677, -0.00001870054, -0.00000752803,  0.00028753532,  0.02749685656,  0.00021380231,  0.00046735595,  0.00001988386,  0.00007210879,  0.00001095509,  0.00000240669,  0.00003833460,  0.00000123544,  0.00002186048
1332700602464594,  0.01180703685, -0.00156792444,  0.00040471295, -0.00000063276,  0.00001186085,  0.00007563663,  0.01586403350,  0.00018342047, -0.00001838795, -0.00000614728,  0.00025061668,  0.02336505581,  0.00012141429,  0.00035556732,  0.00000541117,  0.00006756990,  0.00001193406,  0.00000204521,  0.00003709752,  0.00000094930,  0.00002033288
1332700606065109,  0.01153421996, -0.00234071070,  0.00035116862,  0.00000172419,  0.00001127445,  0.00005316012,  0.01374999182,  0.00021648122, -0.00001863769, -0.00000494998,  0.00021489783,  0.02042563142,  0.00009909517,  0.00022898967, -0.00000050549,  0.00006561024,  0.00000642934,  0.00000178614,  0.00003285778,  0.00000052131,  0.00001893989
1332700609665611,  0.01136555024, -0.00290362094,  0.00030288701, -0.00000026741,  0.00001001500,  0.00003354248,  0.01188035530,  0.00027557115, -0.00002271837, -0.00001341052,  0.00018390381,  0.01854326669,  0.00001450240,  0.00013739583, -0.00000096095,  0.00005818958,  0.00001041506,  0.00000267101,  0.00003246395,  0.00000126488,  0.00001708444
1332700613266165,  0.01127912673, -0.00337698315,  0.00026352959, -0.00000196379,  0.00001015037,  0.00000740160,  0.01032582131,  0.00037034053, -0.00002169159, -0.00001968148,  0.00015771267,  0.01770456901, -0.00007253245,  0.00001691553, -0.00000932508,  0.00005196999,  0.00001435741,  0.00000231903,  0.00003532134,  0.00000156554,  0.00001545775
1332700616866653,  0.01133222032, -0.00373045379,  0.00023166565, -0.00000037828,  0.00001046231, -0.00001843343,  0.00906543025,  0.00051119230, -0.00002808043, -0.00001966702,  0.00014165918,  0.01808658205, -0.00016324946, -0.00007176707, -0.00001690362,  0.00005227639,  0.00001097968,  0.00000223075,  0.00003080433,  0.00000113985,  0.00001482407
1332700620467213,  0.01149242551, -0.00389687049,  0.00019928666, -0.00000123852,  0.00001005847, -0.00004285175,  0.00786285280,  0.00068830515, -0.00002789613, -0.00002523913,  0.00011937100,  0.01950558776, -0.00022998925, -0.00019323868, -0.00002177332,  0.00004952837,  0.00001330966,  0.00000191365,  0.00003170536,  0.00000123448,  0.00001401414
1332700624067684,  0.01178948834, -0.00394099098,  0.00017161409,  0.00000118435,  0.00001147719, -0.00006946555,  0.00691005241,  0.00092383928, -0.00003937281, -0.00002747098,  0.00010080043,  0.02206987988, -0.00035010667, -0.00026361765, -0.00004089965,  0.00005464401,  0.00001270472,  0.00000368303,  0.00002920560,  0.00000161647,  0.00001443283
1332700627668217,  0.01206199742, -0.00374476327,  0.00015542799,  0.00000419873,  0.00001014704, -0.00009034281,  0.00602212530,  0.00109969900, -0.00004247315, -0.00002470318,  0.00008156179,  0.02501035981, -0.00046452949, -0.00030182461, -0.00005886432,  0.00005305190,  0.00001436740,  0.00000445087,  0.00002741882,  0.00000195057,  0.00001436380
1332700631668795,  0.01191842305, -0.00327882355,  0.00010365744,  0.00001251560,  0.00001020413, -0.00009019965,  0.00531095117,  0.00118486107, -0.00005204926,  0.00000310542,  0.00006273700,  0.02595425709, -0.00056646867,  0.00002369758, -0.00006923403,  0.00006202267, -0.00000258002,  0.00000618608,  0.00001965165, -0.00000028397,  0.00001570409
1332700635069288,  0.01155793621, -0.00278529591,  0.00011105327,  0.00001529663,  0.00000492086, -0.00008401104,  0.00476190701,  0.00106619808, -0.00004346562,  0.00000998773,  0.00004130857,  0.02587870447, -0.00054263485,  0.00010853909, -0.00010673422,  0.00005823050, -0.00000342740,  0.00000994467,  0.00001710691, -0.00000075976,  0.00001494991
1332700638869839,  0.01103337430, -0.00240829216,  0.00011754278,  0.00002039230,  0.00000277187, -0.00007280337,  0.00447282044,  0.00087707249, -0.00003695465,  0.00001354957,  0.00003893826,  0.02406890347, -0.00042520380,  0.00018498789, -0.00013591546,  0.00005764592, -0.00000464697,  0.00001500885,  0.00001993687, -0.00000156406,  0.00001959449
1332700649671400,  0.01042673285, -0.00201154603,  0.00010269457,  0.00000277414,  0.00000270398, -0.00005712032,  0.00417857085,  0.00072272205, -0.00002066315,  0.00001267300,  0.00003841116,  0.02190922364, -0.00035467990,  0.00018466280, -0.00002585823,  0.00006045573, -0.00000602699,  0.00000419035,  0.00001947661, -0.00000049011,  0.00001347218
1332700653271915,  0.00997642456, -0.00170718573,  0.00009577495,  0.00000285334,  0.00000186981, -0.00004667151,  0.00394944118,  0.00061118384, -0.00001897549,  0.00000874022,  0.00003328459,  0.02032883360, -0.00031811355,  0.00011463143, -0.00002951865,  0.00006017048, -0.00000122556,  0.00000519032,  0.00001798796, -0.00000008381,  0.00001315508
1332700657072460,  0.00961660426, -0.00144208797,  0.00009212864,  0.00000280596,  0.00000106918, -0.00004145846,  0.00373011201,  0.00053599387, -0.00001541331,  0.00000976871,  0.00002914337,  0.01925677699, -0.00026765090,  0.00013086573, -0.00002387265,  0.00005692503, -0.00000766640,  0.00000462073,  0.00001803386, -0.00000080907,  0.00001192508
1332700660673002,  0.00930725415, -0.00121452328,  0.00010242133,  0.00000083625, -0.00000039261, -0.00003549250,  0.00354751320,  0.00046110573, -0.00001293616,  0.00000624291,  0.00002805038,  0.01832757963, -0.00023776713,  0.00006255521, -0.00002069960,  0.00005774373, -0.00000250059,  0.00000448892,  0.00001627032, -0.00000035357,  0.00001173726
1332700664273510,  0.00904011397, -0.00101018808,  0.00012010802, -0.00000067645, -0.00000150534, -0.00002973327,  0.00337437209,  0.00040806149, -0.00000998045,  0.00000370930,  0.00002899051,  0.01777376166, -0.00019336658,  0.00001710565, -0.00001724249,  0.00005357872, -0.00000332264,  0.00000466045,  0.00001584693, -0.00000051874,  0.00001134872
1332700667874035,  0.00886696744, -0.00082110223,  0.00015253498,  0.00000028798, -0.00000407845, -0.00002958919,  0.00318780568,  0.00039899083, -0.00000990160, -0.00000206130,  0.00002038854,  0.01825642677, -0.00018019795, -0.00011881239, -0.00002065661,  0.00004831773,  0.00000848650,  0.00000554442,  0.00001926692,  0.00000112537,  0.00001153734
1332700671474553,  0.00878465227, -0.00063306542,  0.00024702402, -0.00000185860, -0.00000763430, -0.00004283830,  0.00304803658,  0.00040407281, -0.00000451223, -0.00000429196,  0.00000858664,  0.01995779634, -0.00022892201, -0.00019452595, -0.00003992802,  0.00004483760,  0.00000629195,  0.00000587637,  0.00002040923,  0.00000130676,  0.00001120302
1332700675275104,  0.00872390165, -0.00040293074,  0.00032379096, -0.00000481575, -0.00000784674, -0.00006602398,  0.00300380447,  0.00045423638, -0.00000497920, -0.00000524730, -0.00000386005,  0.02248086702, -0.00031949570, -0.00024680775, -0.00003010602,  0.00002299529,  0.00001126636,  0.00000125977,  0.00002387451,  0.00000128514,  0.00000813848
1332700680675890,  0.00826777269, -0.00033174208,  0.00028015508, -0.00000670351,  0.00000281002, -0.00004659862,  0.00302868275,  0.00046714011, -0.00000717441,  0.00000276825, -0.00001251112,  0.02180187430, -0.00035096649,  0.00016087810, -0.00002735266,  0.00003730741, -0.00000698596,  0.00000185375,  0.00001520465, -0.00000045758,  0.00000937539
1332700684476435,  0.00781679700, -0.00035637395,  0.00023175406, -0.00000543582,  0.00000391128, -0.00003594531,  0.00302781557,  0.00044421067, -0.00000707094,  0.00000301801, -0.00001039257,  0.02023426612, -0.00031018638,  0.00013730896, -0.00001290540,  0.00004560752, -0.00000289516,  0.00000139565,  0.00001252640, -0.00000004771,  0.00000810393
1332700688076951,  0.00745161037, -0.00038503320,  0.00021395271, -0.00000776142,  0.00000374033, -0.00003986051,  0.00304515409,  0.00040621215, -0.00000621478,  0.00000271236, -0.00001192835,  0.01883538654, -0.00026306815,  0.00015456420, -0.00000548649,  0.00005188594, -0.00000500178,  0.00000042292,  0.00001628575, -0.00000008688,  0.00001174898
1332700691677480,  0.00707574476, -0.00041999947,  0.00016538175, -0.00000481499,  0.00000302389, -0.00003567478,  0.00303965975,  0.00038491435, -0.00000580064,  0.00000297042, -0.00001156478,  0.01745784951, -0.00023592220,  0.00012492410, -0.00000234247,  0.00005312461, -0.00000347875, -0.00000019229,  0.00001494433, -0.00000002549,  0.00001142706
1332700695278000,  0.00676164346, -0.00045453603,  0.00012836096, -0.00000293193,  0.00000282208, -0.00002890278,  0.00303408329,  0.00036131107, -0.00000493485,  0.00000315701, -0.00001029217,  0.01625305263, -0.00019832395,  0.00011097104, -0.00000238237,  0.00005443490, -0.00000431374, -0.00000018777,  0.00001549043, -0.00000001586,  0.00001232008
1332700699078545,  0.00648066531, -0.00048257405,  0.00008398246,  0.00000011319,  0.00000203265, -0.00002236477,  0.00302469484,  0.00034442319, -0.00000469871,  0.00000381140, -0.00000943445,  0.01518806490, -0.00017081531,  0.00009550936,  0.00000135810,  0.00005358417, -0.00000405479, -0.00000119420,  0.00001486339,  0.00000007397,  0.00001219223
1332700702679073,  0.00626786730, -0.00051154655,  0.00004700079,  0.00000462511,  0.00000039957, -0.00001802819,  0.00301100304,  0.00032423163, -0.00000361536,  0.00000502962, -0.00000541715,  0.01418038281, -0.00012141441,  0.00009899321, -0.00000029833,  0.00005202741, -0.00000742505, -0.00000133370,  0.00001490476,  0.00000016375,  0.00001145123
1332700706279602,  0.00610163759, -0.00053259683,  0.00002631638,  0.00000772152,  0.00000057219, -0.00001279679,  0.00299420779,  0.00029563377, -0.00000353596,  0.00000504670, -0.00000205589,  0.01326951067, -0.00009763257,  0.00007467472, -0.00000471808,  0.00005050896, -0.00000149247,  0.00000070218,  0.00001235884, -0.00000009558,  0.00001030452
1332700709880120,  0.00599485412, -0.00054326058,  0.00002150431,  0.00000598825,  0.00000071706, -0.00000816435,  0.00298451137,  0.00025993261, -0.00000304350,  0.00000453446,  0.00000030236,  0.01249287857, -0.00007480592,  0.00006488979, -0.00000362378,  0.00004871874,  0.00000080101,  0.00000075408,  0.00001175494, -0.00000004499,  0.00000968677
1332700713480638,  0.00593138357, -0.00054509445,  0.00001332866,  0.00000612027,  0.00000010859, -0.00000466613,  0.00298086778,  0.00023212099, -0.00000265507,  0.00000491911, -0.00000168942,  0.01186753440, -0.00007052129,  0.00006725287, -0.00000022648,  0.00004733966, -0.00000247931,  0.00000028701,  0.00001170108,  0.00000000280,  0.00000924641
1332700717081152,  0.00585089647, -0.00054727023,  0.00000932746,  0.00000655159, -0.00000008853, -0.00000777265,  0.00293806179,  0.00020464790, -0.00000222192,  0.00000517616,  0.00000417913,  0.01118253268, -0.00004029426,  0.00006510592,  0.00000044922,  0.00002435797, -0.00000329488,  0.00000008119,  0.00001011675,  0.00000009464,  0.00000608437
1332700720681676,  0.00579582695, -0.00054810670,  0.00001012544,  0.00000589137, -0.00000000575, -0.00000414641,  0.00291368192,  0.00017022393, -0.00000246165,  0.00000472218,  0.00000385705,  0.01058500322, -0.00004369513,  0.00005349748, -0.00000141972,  0.00001884790, -0.00000056319,  0.00000063096,  0.00000954800,  0.00000006747,  0.00000540714
1332700724282198,  0.00577995829, -0.00054719785,  0.00001358276,  0.00000436474,  0.00000061415,  0.00000299856,  0.00290118130,  0.00013868043, -0.00000300320,  0.00000337195,  0.00000176407,  0.01015352696, -0.00005103919,  0.00002640721, -0.00000336509,  0.00001768642,  0.00000156257,  0.00000103953,  0.00000906182,  0.00000020527,  0.00000488614
1332700728082749,  0.00580218481, -0.00055468124,  0.00000977961,  0.00000522572, -0.00000022621,  0.00000473667,  0.00290238077,  0.00012056234, -0.00000249920,  0.00000388787, -0.00000092037,  0.00997636427, -0.00005840246,  0.00002108431, -0.00000295823,  0.00002134287, -0.00000023287,  0.00000103571,  0.00000900118,  0.00000002670,  0.00000550803
1332700733683606,  0.00583993468, -0.00054897891,  0.00002737008,  0.00000223795, -0.00000301875,  0.00000619480,  0.00290670329,  0.00009535856,  0.00000141289,  0.00000263305,  0.00000322423,  0.00968416339, -0.00001702109,  0.00003560301,  0.00000406327,  0.00001481596, -0.00000399344, -0.00000109088,  0.00001414787,  0.00000093446,  0.00000562665
1332700737284094,  0.00588159939, -0.00052473243,  0.00004063189,  0.00000116104, -0.00000121598,  0.00000220300,  0.00295968555,  0.00008044418,  0.00000081823,  0.00000161193,  0.00001037635,  0.00950747599,  0.00001516303,  0.00000376195,  0.00000065524,  0.00002800274, -0.00000157751,  0.00000065949,  0.00001178224,  0.00000010575,  0.00000686079
1332700741084644,  0.00591627342, -0.00048383707,  0.00004416400,  0.00000031385, -0.00000052919,  0.00000399677,  0.00297872263,  0.00007378517,  0.00000037625,  0.00000079706,  0.00000973606,  0.00955238096,  0.00001908718, -0.00001255747,  0.00000034611,  0.00002976298,  0.00000028474,  0.00000062746,  0.00001096255,  0.00000007669,  0.00000708818
1332700744685167,  0.00596470773, -0.00043947936,  0.00004440682, -0.00000074828, -0.00000031367,  0.00000531646,  0.00299692866,  0.00007557651,  0.00000022150,  0.00000004354,  0.00000835703,  0.00974703496,  0.00002219045, -0.00002480699,  0.00000079770,  0.00003048409,  0.00000049602,  0.00000097151,  0.00001094766,  0.00000003516,  0.00000742750
1332700748285691,  0.00604122880, -0.00039602462,  0.00004387233, -0.00000199921, -0.00000027048,  0.00000971000,  0.00301241415,  0.00008481286,  0.00000022886, -0.00000106205,  0.00000765161,  0.01008854518,  0.00002188681, -0.00004379931,  0.00000034757,  0.00002873799, -0.00000243276,  0.00000101534,  0.00001165120, -0.00000005452,  0.00000767776
1332700752086274,  0.00615826712, -0.00034251419,  0.00004193126, -0.00000253367, -0.00000024590,  0.00001595130,  0.00303655345,  0.00010144429,  0.00000038001, -0.00000244257,  0.00000987203,  0.01064725313,  0.00002120031, -0.00007012041, -0.00000261473,  0.00002141937, -0.00000315104, -0.00000003827,  0.00001337290,  0.00000024430,  0.00000750585
1332700756886937,  0.00633259277, -0.00027869834,  0.00004673555, -0.00000321673, -0.00000020438,  0.00002192584,  0.00306913925,  0.00011355903, -0.00000007924, -0.00000180473,  0.00000995089,  0.01144623066,  0.00002432156, -0.00009072453,  0.00000173241,  0.00001861085,  0.00000042524,  0.00000087999,  0.00001327613,  0.00000008220,  0.00000696362
1332700767888533,  0.00657186142, -0.00019434370,  0.00004658233, -0.00000023391, -0.00000001045,  0.00003185942,  0.00315642718,  0.00013027690, -0.00000173157, -0.00000117852,  0.00000771996,  0.01245431257, -0.00011451729, -0.00004138938, -0.00000015427,  0.00002287679, -0.00000031489, -0.00000014771,  0.00001790448,  0.00000035582,  0.00000957255
1332700772289202,  0.00663941504, -0.00008359508,  0.00003821359, -0.00000254493,  0.00000117013,  0.00003438666,  0.00324191688,  0.00014198331, -0.00000192442, -0.00000096543,  0.00000450364,  0.01317454553, -0.00011667167, -0.00006862558, -0.00000564181,  0.00003915328,  0.00000103131,  0.00000120820,  0.00001953478,  0.00000005794,  0.00001329581
1332700776489788,  0.00659592994,  0.00002900176,  0.00003062532, -0.00000147884,  0.00000079484,  0.00002676221,  0.00329994458,  0.00014219444, -0.00000083545, -0.00000041408,  0.00000490342,  0.01362500168, -0.00009965879, -0.00005532511, -0.00000381207,  0.00004089502, -0.00000218593,  0.00000082431,  0.00001844553,  0.00000001123,  0.00001256178
1332700780290333,  0.00659900821,  0.00013320045,  0.00001703599, -0.00000000448,  0.00000200355,  0.00002377642,  0.00336091421,  0.00014747696, -0.00000273492,  0.00000007325,  0.00000503066,  0.01428122449, -0.00007717874, -0.00006788048,  0.00000258291,  0.00004580720, -0.00000074869, -0.00000123492,  0.00001823841,  0.00000006697,  0.00001286709
1332700783890855,  0.00659882106,  0.00021694663,  0.00000535930, -0.00000031013,  0.00000197362,  0.00002049629,  0.00341205434,  0.00014225301, -0.00000249700,  0.00000068270,  0.00000345488,  0.01496686627, -0.00005936114, -0.00007020910,  0.00000097395,  0.00004943228, -0.00000268846, -0.00000151691,  0.00001869887,  0.00000018506,  0.00001317068
1332700787291352,  0.00659159962,  0.00028545015, -0.00001145374, -0.00000118459,  0.00000238945,  0.00001392921,  0.00344273966,  0.00013142355, -0.00000376184,  0.00000127974,  0.00000041710,  0.01573252817, -0.00002315618, -0.00007870858, -0.00000230041,  0.00005396488, -0.00000290814, -0.00000145650,  0.00001856321,  0.00000022414,  0.00001293249
1332700791091905,  0.00659970795,  0.00033280522, -0.00003337028, -0.00000183574,  0.00000357905,  0.00000896373,  0.00345201476,  0.00011410513, -0.00000642512,  0.00000169631, -0.00000382951,  0.01662012084,  0.00001319279, -0.00008899363, -0.00000257004,  0.00005593746, -0.00000123707, -0.00000193161,  0.00002004268,  0.00000005797,  0.00001386755
1332700794692424,  0.00659815573,  0.00035418620, -0.00004787871, -0.00000190795,  0.00000361446,  0.00000418973,  0.00342965038,  0.00009493652, -0.00000685173,  0.00000211042, -0.00001196135,  0.01762443492,  0.00003887845, -0.00009946840, -0.00000415957,  0.00005597615, -0.00000329527, -0.00000354269,  0.00002250346,  0.00000018780,  0.00001549262
1332700798292942,  0.00658874760,  0.00034750889, -0.00006002746, -0.00000245073,  0.00000339110, -0.00000078849,  0.00334527780,  0.00007637790, -0.00000692294,  0.00000181393, -0.00001319828,  0.01874617879,  0.00007392854, -0.00012125409, -0.00000264615,  0.00005546158, -0.00000262623, -0.00000241865,  0.00002158949, -0.00000008613,  0.00001410987
1332700802093528,  0.00658299910,  0.00031136086, -0.00006193526, -0.00000277454,  0.00000260778, -0.00000783225,  0.00322201214,  0.00006251583, -0.00000657115,  0.00000208340, -0.00001086966,  0.02025927391,  0.00011195924, -0.00016081733, -0.00001138430,  0.00005410445, -0.00000400441, -0.00000465618,  0.00002194472,  0.00000029852,  0.00001389802
1332700805694018,  0.00657932511,  0.00023949872, -0.00005737896, -0.00000321571,  0.00000211000, -0.00001432032,  0.00309311919,  0.00005555120, -0.00000758984,  0.00000103922, -0.00001330192,  0.02203118904,  0.00017667336, -0.00017236980, -0.00001614232,  0.00005474656,  0.00000008350, -0.00000426807,  0.00002323245, -0.00000014727,  0.00001472651
1332700809294536,  0.00656843403,  0.00013112437,  0.00000441441, -0.00000247476, -0.00000154169, -0.00002082018,  0.00295442926,  0.00009313702, -0.00000184499,  0.00000068441, -0.00001194599,  0.02415012893,  0.00019450649, -0.00023738358, -0.00002095837,  0.00005288297, -0.00000401707, -0.00000493629,  0.00002477978,  0.00000042771,  0.00001503045